Regional Weather Roundup
Issued by NWS

Home | Current Version | Previous Version | Text Only | Print | Product List | Glossary Off
Versions: 1 2 3 4 5 6 7 8 9 10 11 12 13 14 15 16 17 18 19 20 21 22 23 24 25 26 27 28 29 30 31 32 33 34 35 36 37 38 39 40 41 42 43 44 45 46 47 48 49 50

000
ASUS45 KSLC 221810
RWRUT

UTAH REGIONAL WEATHER ROUNDUP
NATIONAL WEATHER SERVICE SALT LAKE CITY UT
1200 PM MDT SAT APR 22 2017

UTZ001>011-023>025-221900-

NORTHERN UTAH

CITY           SKY/WX    TMP DP  RH WIND       PRES   REMARKS
BRIGHAM CITY   SUNNY     52  29  41 W3        30.23S
HILL AFB       SUNNY     52  25  34 SW8       30.22S
LOGAN          SUNNY     52  34  50 E3        30.22F
OGDEN          SUNNY     53  26  35 SW8       30.22R
SALT LAKE CITY MOSUNNY   56  25  30 S10       30.21F
TOOELE VALLEY  SUNNY     54  30  40 SW7       30.23S
WENDOVER       MOSUNNY   51  31  46 E5        30.23F
HEBER CITY     SUNNY     50  21  32 N3        30.22F
WEST JORDAN    SUNNY     56  36  45 S9        30.22S

$$

UTZ011>015-024>027-221900-

CENTRAL/NORTHEAST UTAH

CITY           SKY/WX    TMP DP  RH WIND       PRES   REMARKS
PROVO AIRPORT  SUNNY     51  32  48 W10       30.22F
MOAB/CANYONLAN SUNNY     61  19  19 NW9G17    30.20F
DELTA          SUNNY     52  19  28 S3        30.22S
PRICE          SUNNY     53  18  25 S7        30.25F
ROOSEVELT      SUNNY     52  21  30 CALM      30.30F
VERNAL         SUNNY     53  23  31 NE8       30.28F

$$

UTZ013>016-019>022-027-221900-

SOUTHERN UTAH

CITY           SKY/WX    TMP DP  RH WIND       PRES   REMARKS
BRYCE CANYON   SUNNY     52  14  22 SE6       30.25F
CEDAR CITY     SUNNY     54  23  30 CALM      30.18F
MILFORD        SUNNY     54  18  24 CALM      30.20F
ST GEORGE      CLEAR     66  22  18 S6        30.12F
HANKSVILLE     SUNNY     59  19  21 NE3       30.26F
BLANDING       SUNNY     56  19  24 S3        30.28F

$$

REGIONAL REPORTS     COLORADO/ARIZONA

CITY           SKY/WX    TMP DP  RH WIND       PRES   REMARKS
CRAIG, CO      SUNNY     50  22  33 NE7       30.28F
GRAND JUNCTION SUNNY     59  18  20 NE10      30.22F
RIFLE, CO      SUNNY     53  24  32 VRB3      30.25F
MONTROSE, CO   SUNNY     53  23  31 VRB6      30.25S
CORTEZ, CO     SUNNY     56  15  20 E7        30.20S
COLORADO CITY    N/A     68  21  17 E9        30.18F
PAGE, AZ       SUNNY     62  19  19 N7        30.20S
GRAND CANYON   SUNNY     60  24  25 NE12      30.22S
KINGMAN, AZ    SUNNY     74  24  15 NE12G20   30.07S
FLAGSTAFF, AZ  SUNNY     57  16  20 NE10G17   30.22S

$$

REGIONAL REPORTS    NEVADA/IDAHO/WYOMING

CITY           SKY/WX    TMP DP  RH WIND       PRES   REMARKS
LAS VEGAS, NV  MOSUNNY   74  18  12 N9G18     30.06F
ELY, NY        SUNNY     52  25  35 VRB5      30.19S
ELKO, NV       MOSUNNY   54  25  32 E3        30.12F
POCATELLO, ID  MOSUNNY   53  35  50 NW7       30.21F
BURLEY, ID     SUNNY     56  23  27 CALM      30.16F
FORT BRIDGER,    N/A     46  25  43 E8        30.28F
EVANSTON, WY   SUNNY     46  24  42 VRB3      30.23F
ROCK SPRINGS,  MOSUNNY   46  21  37 MISG      30.28F
KEMMERER, WY     N/A     43  25  49 SE9       30.26F

$$



USA.gov is the U.S. government's official web portal to all federal, state and local government web resources and services.